Аэропорт
Якутск (UEEE)

 UEEE / YKS
ЗЦ Хабаровск
Якутск (UEEE)
Якутск (UEEE)
 62.09330, 129.77100  / 325 ft

 UEEE 220600Z 21001MPS CAVOK M04/M10 Q1017 R23L/450153 NOSIG RMK QFE754
 TAF UEEE 220200Z 2203/2309 25003MPS 9999 SCT020CB BKN070 TEMPO 2203/2212 -SHSN
AIP 1605
показать схемы
Название сценария Тип сценария Flight Simulator 9 Flight Simulator X Prepar3D v2 Prepar3D v3 Prepar3D v4 Prepar3D v5 xPlane
UEEE P3D_v.4.4 бесплатный
ueee-scenery-fs9-1404 бесплатный
ueee-scenery-fsx-1405 бесплатный
ueee-scenery-p3d-1405 бесплатный
ueee-scenery-xpl-1210 бесплатный
ueee-scenery-xpl-1407 бесплатный

 

Международный аэропорт «Якутск» имени Платона Ойунского (ИАТА: YKS, ИКАО: UEEE) — международный аэропорт федерального значения в одноимённом городе, столице Республики Саха (Якутия). В аэропорту базируются авиакомпании «Якутия» и «Полярные авиалинии». Аэропорт «Якутск» является единственным в мире аэропортом-полигоном для испытаний новой авиационной техники в условиях низких температур.

05П/23Л.  Размеры: 3400/60 м. Покрытие: цементобетон

 



2020 © VATRUS division (Privacy Policy)